Regional Weather Roundup
Issued by NWS

Home | Current Version | Previous Version | Text Only | Print | Product List | Glossary Off
Versions: 1 2 3 4 5 6 7 8 9 10 11 12 13 14 15 16 17 18 19 20 21 22 23 24 25 26 27 28 29 30 31 32 33 34 35 36 37 38 39 40 41 42 43 44 45 46 47 48 49 50

000
ASUS45 KCYS 231010
RWRWY

WYOMING REGIONAL WEATHER ROUNDUP
NATIONAL WEATHER SERVICE CHEYENNE WY
400 AM MDT SAT MAY 23 2015

NOTE:  "FAIR" INDICATES FEW OR NO CLOUDS BELOW 12,000 FEET
WITH NO SIGNIFICANT WEATHER AND/OR OBSTRUCTIONS TO VISIBILITY.

WYZ001-231100-
YELLOWSTONE NATIONAL PARK

CITY           SKY/WX    TMP DP  RH WIND       PRES   REMARKS
LK YELLOWSTONE   N/A     36  35  96 CALM      30.03F
W YELLOWSTONE  NOT AVBL

$$
WYZ002>013-054>058-071-098>099-231100-
NORTHERN WYOMING

CITY           SKY/WX    TMP DP  RH WIND       PRES   REMARKS
JACKSON        CLOUDY    45  43  93 CALM      29.96F
CODY           CLOUDY    48  46  93 CALM      29.96F
GREYBULL       CLOUDY    54  51  90 NW5       29.92S
WORLAND        CLOUDY    52  50  93 CALM      29.93S
SHERIDAN       FAIR      45  42  89 S7        29.95S
BUFFALO        CLOUDY    45  44  97 SE10      29.98S
GILLETTE       CLOUDY    46  43  89 SE10      29.99F
HULETT         FAIR      43  39  87 CALM      30.03S
NEWCASTLE      CLOUDY    43  43 100 SE12      30.04F

$$
WYZ014>020-022>026-101>103-231100-
CENTRAL WYOMING

CITY           SKY/WX    TMP DP  RH WIND       PRES   REMARKS
BIG PINEY      LGT RAIN  40  38  93 NW5       29.99F
PINEDALE       LGT RAIN  41  41 100 CALM      30.00S
DUBOIS         DRIZZLE   37  36  93 CALM      29.99S
LANDER         MOCLDY    45  41  86 N5        29.94S
RIVERTON         N/A    N/A N/A N/A MISG      29.95F
CASPER         FOG       39  38  96 NE3       29.98R VSB 1
DOUGLAS        CLOUDY    44  43  96 SE13      30.00S FOG

$$
WYZ021-027>030-104>119-231100-
SOUTHERN WYOMING

CITY           SKY/WX    TMP DP  RH WIND       PRES   REMARKS
EVANSTON       CLOUDY    40  38  93 E5        29.98S
KEMMERER       CLOUDY    39  37  93 S5        29.99F
FORT BRIDGER   SUNNY     41  39  93 CALM      30.00F
ROCK SPRINGS   FAIR      37  35  92 E7        29.99S WCI  32
DIXON          FAIR      38  35  90 NE5       30.03F WCI  34
RAWLINS        FAIR      41  35  79 E5        30.01F
SARATOGA       FAIR      39  36  87 CALM      30.03S
LARAMIE        FAIR      39  37  92 S13       30.02F WCI  31
CHEYENNE       CLOUDY    43  42  97 S9        30.05S FOG
TORRINGTON     CLOUDY    44  43  96 SE8       30.03S
PINE BLUFFS    FOG       43  43 100 CALM      30.05F VSB 1/2

$$



USA.gov is the U.S. government's official web portal to all federal, state and local government web resources and services.